STARLINK-36619, 67645

Orbit data source: Space-Track

STARLINK-36619, 67645 is a payload satellite owned by SpaceX/Seattle (US) in LEO that was launched on Fri, 30 Jan 2026 UTC via an FALCON 9 launch vehicle from the Air Force Eastern Test Range (AFETR). Payload-class satellites include a variety of spacecraft equipped with specific instruments for various scientific and technological missions. These include communications satellites like Starlink; space stations such as the ISS; scientific satellites like the Hubble; Earth observation satellites from companies like Planet Labs, Umbra, and HawkEye 360; GPS; miniature CubeSats for education and research; and military/defense satellites.

Loading next visibility...
Identifier
67645, 2026-020AE
Orbit
LEO
Country
Flag of USUS
Related business
Manufacturer
SpaceX/Seattle
Mission
Operational spacecraft
Bus & Motor
STARLINK V2MO, Unknown motor
Mass
575 kg wet, ~530 kg dry
Launch date (UTC)
2026-01-30 (2 months ago)
Launch vehicle
FALCON 9
Launch site
Air Force Eastern Test Range (AFETR)
Object type
Payload
Rocket body
Debris
Shape & HBR
Unknown shape, 17.7 m
Radar Cross Section
RCS unknown

Expand to show TLE details & history
Last TLE update: 5 hours ago

TLE from 5 hours ago
0 STARLINK-36619
1 67645U 26020AE  26104.82517016  .00005599  00000-0  21281-3 0  9996
2 67645  43.0015 295.3855 0000810 262.6097  97.4663 15.27580927 11644
Epoch: 2026-04-14T19:48Z
TLE epoch observation values (Epoch: 2026-04-14T19:48:14.701Z)
Latitude
-0.00001°
Longitude
155.32837°
Altitude
482.894 km
Speed
7.626 km/s
True Right ascension
19h 41m 32s
True Declination
0° 00' 00"
Sunlit
Object was in daylight at epoch
Visualization orbit readout
Latitude
Unknown
Longitude
Unknown
Altitude
Unknown
Speed
Unknown
Apparent Right ascension
Unknown
Apparent Declination
Unknown
Sunlit
N/A
Visualization observer readout
Local Sidereal Time
07:05:33
Azimuth
Unknown
Elevation
Unknown
Doppler factor
Unknown
Orbital elements
Apogee altitude
485.547 km
Perigee altitude
484.435 km
Semi-major axis
6,863.128 km
Eccentricity
0.00008
Inclination
43.0015°
RAAN
295.3855°
Arg. of periapsis
262.6097°
True anomaly
97.4755°
Mean anomaly
97.4663°
Eccentric anomaly
97.4709°
Mean motion
3.81733 °/min
Orbital period
94.31 mins
BSTAR
0.00021281
Loading maneuver chart data...
Computing Atmospheric mass density...
Loading historical data...
Loading historical data...
Loading historical data...
Loading historical data...
Loading historical data...
Loading historical data...
Loading historical data...

Documentation

Showing up to 5 results
|